Regional Weather Roundup
Issued by NWS Goodland, KS

Home | Current Version | Previous Version | Graphics & Text | Print | Product List | Glossary On
Versions: 1 2 3 4 5 6 7 8 9 10 11 12 13 14 15 16 17 18 19 20 21 22 23 24 25 26 27 28 29 30 31 32 33 34 35 36 37 38 39 40 41 42 43 44 45 46 47 48 49 50
000
ASUS43 KGLD 290859
RWRGLD

GOODLAND FORECAST AREA HOURLY WEATHER ROUNDUP
NATIONAL WEATHER SERVICE GOODLAND KS
300 AM MDT SUN MAR 29 2015

...OFFICIAL OBSERVATIONS...

CITY           SKY/WX    TMP DP  RH WIND       PRES   REMARKS
GOODLAND KS    PTCLDY    65  29  25 NW24G30   29.91R
HILL CITY KS   CLOUDY    63  44  50 NW10G20   29.87R
IMPERIAL NEB   MOCLDY    56  33  42 N18       30.00R
MCCOOK NEB     MOCLDY    64  38  38 N28G36    29.87R
AKRON CO       PTCLDY    48  30  49 N22       30.07R
BURLINGTON CO  MOCLDY    63  28  26 N21G26    29.96S
LIMON CO       PTCLDY    54  31  41 N20       30.04R
$$

...UNOFFICIAL OBSERVATIONS...

CITY           SKY/WX    TMP DP  RH WIND       PRES   REMARKS
COLBY KS       CLEAR     61  36  39 NW18G25   29.88S
GOVE KS          N/A     60  32  34 MISG        N/A
LENORA KS        N/A     60  32  34 MISG        N/A
NORTON KS      CLEAR     55  37  50 SW3       29.84R
SHARON SPRINGS   N/A     50  34  54 N14         N/A
KIT CARSON CO    N/A     61  32  34 MISG        N/A
YUMA CO          N/A     53  30  42 N20         N/A
$$


USA.gov is the U.S. government's official web portal to all federal, state and local government web resources and services.